Flag for Portugal Weather past 2 weeks in Loures, Portugal

59 °F

Passing clouds.

Feels Like: 55 °F
Forecast: 58 / 67 °F
Wind: 21 mph from North

Location: Lisbon Portela Airport

Current Time: Nov 26, 2015 at 10:44:47 AM

Latest Report: Nov 26, 2015 at 10:00 AM

Visibility: N/A

Pressure: 30.30 "Hg

Humidity: 72%

Dew point: 50 °F

Location of LouresLocation

Historic Weather in Loures — Graph


Loures temperature yesterday

Maximum temperature yesterday: 63 °F (at 12:30 PM)
Minimum temperature yesterday: 52 °F (at 12:00 AM)
Average temperature yesterday: 58 °F

Past Weeks' High & Low Weather Summary

High72 °F (Nov 11, 2:00 PM)100% (Nov 16, 7:00 AM)30.48 "Hg (Nov 16, 7:00 AM)
Low39 °F (Nov 24, 7:30 AM)48% (Nov 24, 1:30 PM)30.04 "Hg (Nov 22, 4:30 PM)
Average58 °F79%30.31 "Hg
* Reported Nov 11 9:00 AM — Nov 26 9:30 AM, Loures, Weather by CustomWeather, © 2015

Note: Actual official high and low records may vary slightly from our data, if they occured in-between our weather recording intervals... More about our weather records


Loures weather history for previous 24 hours

Time TempWeatherWind HumidityBarometerVisibility
9:30 AM
Thu, Nov 26
59 °FPassing clouds.23 mph77%30.30 "HgN/A
9:00 AM57 °FPassing clouds.17 mph82%30.27 "HgN/A
8:30 AM57 °FPassing clouds.16 mph82%30.27 "HgN/A
8:00 AM55 °FPassing clouds.13 mph88%30.30 "HgN/A
7:30 AM55 °FPassing clouds.15 mph88%30.30 "HgN/A
7:00 AM55 °FPassing clouds.12 mph88%30.30 "HgN/A
6:30 AM55 °FPassing clouds.13 mph88%30.30 "HgN/A
6:00 AM55 °FClear.14 mph88%30.30 "Hg10 mi
5:30 AM55 °FPassing clouds.12 mph88%30.30 "HgN/A
5:00 AM55 °FPassing clouds.14 mph88%30.30 "HgN/A
4:30 AM55 °FPassing clouds.15 mph88%30.33 "HgN/A
3:30 AM55 °FPassing clouds.16 mph88%30.33 "HgN/A
3:00 AM55 °FPassing clouds.15 mph88%30.33 "HgN/A
2:30 AM55 °FPassing clouds.16 mph88%30.36 "HgN/A
2:00 AM55 °FPassing clouds.14 mph88%30.36 "HgN/A
1:30 AM57 °FPassing clouds.18 mph82%30.39 "HgN/A
1:00 AM55 °FPassing clouds.15 mph88%30.39 "HgN/A
12:30 AM57 °FPassing clouds.18 mph82%30.39 "HgN/A
12:00 AM57 °FPassing clouds.18 mph82%30.39 "HgN/A
11:30 PM
Wed, Nov 25
57 °FClear.16 mph82%30.39 "Hg10 mi
11:00 PM57 °FClear.16 mph82%30.39 "Hg10 mi
10:30 PM57 °FPassing clouds.14 mph82%30.39 "HgN/A
10:00 PM57 °FPassing clouds.16 mph82%30.42 "HgN/A
9:30 PM57 °FPassing clouds.14 mph82%30.39 "HgN/A
9:00 PM57 °FPassing clouds.15 mph82%30.42 "HgN/A
8:30 PM59 °FPassing clouds.20 mph77%30.39 "HgN/A
8:00 PM59 °FPassing clouds.15 mph77%30.42 "HgN/A
7:30 PM57 °FPassing clouds.14 mph82%30.39 "HgN/A
7:00 PM59 °FPassing clouds.20 mph77%30.39 "HgN/A
6:30 PM59 °FPassing clouds.15 mph77%30.39 "HgN/A
6:00 PM59 °FPassing clouds.17 mph77%30.39 "HgN/A
5:30 PM59 °FPassing clouds.18 mph77%30.39 "HgN/A
5:00 PM59 °FScattered clouds.18 mph77%30.39 "HgN/A
4:30 PM59 °FScattered clouds.17 mph77%30.39 "HgN/A
4:00 PM61 °FPassing clouds.16 mph72%30.39 "HgN/A
3:30 PM61 °FPassing clouds.18 mph72%30.39 "HgN/A
3:00 PM61 °FPassing clouds.17 mph68%30.39 "HgN/A
2:30 PM63 °FPassing clouds.20 mph64%30.39 "HgN/A
2:00 PM63 °FPassing clouds.22 mph64%30.39 "HgN/A
1:30 PM63 °FPassing clouds.21 mph64%30.42 "HgN/A
1:00 PM63 °FPassing clouds.23 mph64%30.42 "HgN/A
12:30 PM63 °FPassing clouds.22 mph64%30.42 "HgN/A
12:00 PM61 °FPassing clouds.22 mph68%30.45 "HgN/A
11:30 AM61 °FPassing clouds.22 mph72%30.45 "HgN/A
11:00 AM59 °FPassing clouds.18 mph77%30.48 "HgN/A
10:30 AM59 °FScattered clouds.17 mph77%30.48 "HgN/A
10:00 AM59 °FPassing clouds.13 mph77%30.48 "HgN/A
Weather by CustomWeather, © 2015

See weather overviewHow to use our weather pages